Lid_Strength_Index
1 1 2 2 3 3 4 4 4 5 5 5 4 3 3 3 4 4 4 6 7 7
1 2 3 3 3 3 3 5 5 5 6 6 6 5 4 4 5 4 5 6 7 7
4 3 4 4 5 4 4 4 5 6 6 6 6 6 6 6 7 6 7 7 7 7
4 4 4 5 5 5 6 5 5 6 6 6 7 7 7 7 7 7 8 7 8 8
4 5 5 5 6 6 6 6 6 6 7 7 7 7 7 7 7 7 7 7 8 8
4 5 5 5 5 6 6 6 6 6 6 6 6 6 7 7 7 7 7 8 8 8
4 5 5 5 5 5 6 7 7 7 6 6 6 6 6 6 7 7 7 7 8 8
6 6 6 6 7 8 8 8 8 9 9 9 9 8 8 8 9 9 10 10 10 10
7 7 8 8 8 9 9 9 9 9 8 9 8 7 8 9 10 10 10 10 9 7
7 7 8 7 8 8 9 9 9 9 8 8 7 5 5 6 8 8 9 8 8 8
6 6 6 7 9 10 10 10 10 10 10 9 7 5 5 6 10 10 10 10 10 10
7 8 9 10 11 11 11 11 11 11 12 11 10 6 7 10 12 12 12 11 11 11
8 9 10 10 11 12 12 11 11 12 13 10 13 7 8 11 13 14 13 13 11 8
9 10 11 12 12 13 12 12 13 13 14 14 13 11 8 9 13 13 13 13 13 12